#timestamp,LO_Frequency,Hit,StdDev 
1665907215.2,286046998.4,N
1665907235.1,286046998.7,N
1665907236.0,286046998.7,N
1665907255.8,286046998.9,N
1665907275.6,286046998.2,N
1665907295.5,286047000.1,N
1665907315.3,286047001.5,N
1665907335.2,286047004.4,Y
1665907355.9,286047003.4,P
1665907375.7,286047003.0,N
1665907395.6,286047003.6,N
1665907415.4,286047003.1,N
1665907435.2,286047004.0,N
1665907455.1,286047003.0,N
1665907456.0,286047003.0,N
1665907475.8,286047003.1,N
1665907495.7,286047003.2,N
1665907515.5,286047004.0,Y
1665907535.3,286047002.2,P
1665907555.2,286047002.2,P
1665907575.0,286047000.1,N
1665907575.9,286047000.1,N
1665907595.7,286047002.4,N
1665907615.6,286046999.9,N
1665907635.4,286046999.6,N
1665907655.3,286046994.9,Y
1665907675.1,286046995.7,P
1665907695.8,286046996.9,N
1665907715.7,286046999.2,N
1665907735.5,286046998.9,N
1665907755.3,286046998.5,N
1665907775.2,286047000.9,N
1665907795.0,286046998.2,N
1665907795.9,286046998.2,N
1665907815.8,286046996.5,N
1665907835.6,286046998.9,N
1665907855.4,286046998.4,N
1665907875.3,286047001.1,N
1665907895.1,286047000.5,N
1665907915.9,286046998.2,N
1665907935.7,286046998.7,N
1665907955.5,286046999.2,N
1665907975.4,286046998.1,N
1665907995.2,286046998.9,N
1665908015.0,286046998.9,N
1665908015.9,286046998.9,N
1665908035.8,286046998.8,N
1665908055.6,286046998.3,N
1665908075.5,286046997.4,N
1665908095.3,286046996.9,N
1665908115.1,286046998.7,N
1665908135.9,286047000.7,N
1665908155.7,286047000.6,N
1665908175.5,286046998.5,N
1665908195.4,286046998.5,N
1665908215.2,286046998.9,N
1665908235.1,286046997.0,N
1665908236.0,286046997.0,N
1665908255.8,286047001.2,N
1665908275.6,286047001.0,N
1665908295.5,286047000.7,N
1665908315.3,286047000.7,N
1665908335.1,286046998.8,N
1665908355.9,286046997.8,N
1665908375.7,286046997.2,N
1665908395.6,286046996.7,N
1665908415.4,286046997.1,N
1665908435.2,286046997.1,N
1665908455.1,286046996.8,N
1665908456.0,286046996.8,N
1665908475.8,286046996.7,N
1665908495.7,286046998.4,N
1665908515.5,286047000.7,N
1665908535.3,286046999.6,N
1665908555.2,286046999.1,N
1665908575.0,286046999.6,N
1665908575.9,286046999.6,N
1665908595.8,286046998.5,N
1665908615.6,286046999.6,N
1665908635.4,286046999.0,N
1665908655.3,286046999.4,N
1665908675.1,286046996.5,N
1665908695.8,286046996.9,N
1665908715.7,286046997.7,N
1665908735.5,286046995.0,Y
1665908755.4,286046999.1,P
1665908775.2,286046997.8,P
1665908795.0,286046993.3,P
1665908795.9,286046993.3,N
1665908815.8,286046996.3,N
1665908835.6,286046997.7,N
1665908855.5,286046999.3,N
1665908875.3,286046998.1,N
1665908895.1,286046998.6,N
1665908915.9,286046998.2,N
1665908935.7,286047000.7,N
1665908955.5,286046998.3,N
1665908975.4,286046998.1,N
1665908995.2,286046999.5,N
1665909015.0,286046999.1,N
1665909016.0,286046999.1,N
1665909035.8,286046998.6,N
1665909055.6,286046997.7,N
1665909075.5,286046998.0,N
1665909095.3,286046997.4,N
1665909115.1,286046999.0,N
1665909135.9,286046998.3,N
1665909155.7,286047000.5,N
1665909175.6,286047001.1,N
1665909195.4,286046996.6,N
1665909215.2,286046998.3,N
1665909235.1,286046999.4,N
1665909236.0,286046999.4,N
1665909255.8,286047001.1,N
1665909275.6,286046998.8,N
1665909295.5,286046997.2,N
1665909315.3,286046997.1,N
1665909335.2,286046999.3,N
1665909355.9,286047001.1,N
1665909375.7,286047000.0,N
1665909395.6,286047002.3,N
1665909415.4,286047001.5,N
1665909435.3,286047011.9,Y
1665909455.1,286047003.8,P
1665909456.0,286047003.8,N
1665909475.8,286047001.5,N
1665909495.7,286047002.4,N
1665909515.5,286047002.1,N
1665909535.3,286047001.8,N
1665909555.2,286046999.8,N
1665909575.0,286047002.6,N
1665909575.9,286047002.6,N
1665909595.8,286047002.7,N
1665909615.6,286047000.1,N
1665909635.4,286047001.6,N
1665909655.3,286047001.9,N
1665909675.1,286046998.6,N
1665909695.9,286046998.3,N
1665909715.7,286047000.0,N
1665909735.5,286047000.8,N
1665909755.4,286046999.8,N
1665909775.2,286047000.1,N
1665909795.1,286046999.8,N
1665909796.0,286046999.8,N
1665909815.8,286047002.0,N
1665909835.6,286047001.4,N
1665909855.5,286047004.2,N
1665909875.3,286047003.6,N
1665909895.1,286047003.2,N
1665909915.9,286047005.4,Y
1665909935.7,286047003.8,P
1665909955.6,286047001.5,N
1665909975.4,286047001.9,N
1665909995.2,286047001.5,N
1665910015.1,286047004.4,Y
1665910016.0,286047004.4,P
1665910035.8,286046998.4,N
1665910055.7,286046998.6,N
1665910075.5,286046998.9,N
1665910095.3,286047000.8,N
1665910115.2,286046997.0,N
1665910135.0,286046995.4,N
1665910135.9,286046995.4,N
1665910155.8,286046997.1,N
1665910175.6,286046999.2,N
1665910195.4,286046996.8,N
1665910215.3,286046999.1,N
1665910235.1,286046998.5,N
1665910255.8,286046998.4,N
1665910275.7,286046998.9,N
1665910295.5,286046996.6,N
1665910315.4,286046995.2,N
1665910335.2,286046995.0,N
1665910355.0,286046994.9,N
1665910355.9,286046994.9,N
1665910375.8,286046997.1,N
1665910395.6,286046998.8,N
1665910415.4,286046998.7,N
1665910435.3,286046998.4,N
1665910455.1,286046997.3,N
1665910475.9,286046996.7,N
1665910495.7,286046996.6,N
1665910515.5,286046995.7,N
1665910535.4,286046996.2,N
1665910555.2,286046995.5,N
1665910575.0,286046995.2,N
1665910606.0,286046996.1,E
1665910615.9,286046997.6,N
1665910635.7,286047000.3,P
1665910655.6,286047000.7,N
1665910675.4,286046998.2,N
1665910695.2,286047000.1,N
1665910715.1,286047001.3,N
1665910716.0,286047001.3,N
1665910735.8,286047001.7,N
1665910755.7,286047003.9,N
1665910775.5,286047004.0,N
1665910795.3,286047001.5,N
